Weather in Navapolatsk

Belarus     55°32′07″N   28°38′43″E
temp.,
°C
wind,
m/s
gust,
m/s
humid.,
%
clouds,
%
prec.,
mm/h
press.,
hPa
HPBL,
m
24 october, sun
sun2400:00+3wnw5108662 0.1 1014716
03:00+4nw5980100 0.1 1017933
06:00+3nw5985100 0.0 1020889
09:00+3nw587599 0.1 1022993
12:00+4nw576178 0.0 10251277
15:00+5nw575492 0.0 10261256
18:00+2nw366862 0.0 1028209
21:000nw227681 0.0 102940
25 october, mon
mon2500:000wsw1176100 0.0 103016
03:000sw239175 0.0 103063
06:00−1ssw27955 0.0 1030145
09:00+1sw3109069 0.0 1029281
12:00+6sw59636 0.0 1028608
15:00+8sw59595 0.0 1026807
18:00+5sw410715 0.0 1026329
21:00+4sw4127747 0.0 1025369
26 october, tue
tue2600:00+3ssw41277100 0.0 1025357
03:00+3ssw41275100 0.0 1024329
06:00+3ssw4127566 0.0 1022339
09:00+3ssw41372100 0.0 1021386
12:00+7sw41257100 0.0 1020530
15:00+9sw41055100 0.0 1019663
18:00+6ssw396967 0.0 1019264
21:00+5ssw31177100 0.0 1019302
27 october, wed
wed2700:00+4sw3981100 0.0 1018249
03:00+4ssw3883100 0.0 1017214
06:00+6sw31079100 0.0 1016326
09:00+6wsw41094100 1.3 1016484
12:00+8wsw4991100 1.4 1017647
15:00+9w487797 1.4 1018922
18:00+8w4875100 0.0 1019476
21:00+8w41086100 0.1 1020420
28 october, thu
thu2800:00+7wsw41090100 0.1 1020326
03:00+6wsw399497 0.1 1020328
06:00+7sw41191100 0.1 1020437
09:00+7sw41294100 1.1 1019532
12:00+9wsw61393100 1.1 1018758
15:00+10wsw61391100 2.8 1018835
18:00+10w61394100 3.1 1018808
21:00+10w41195100 4.1 1019641